| time (UTC) | temp C | wind direction | speed KPH | gust KPH | rain 1hr cm | rain 24hr cm | rain mn cm | humidity % | barometer mb |
| 20260509053824 | 16 | 69 | 4.8 | 17.7 | 0.00 | 0.00 | 0.00 | 98 | 915.8 |
| 20260509053625 | 16 | 91 | 4.8 | 16.1 | 0.00 | 0.00 | 0.00 | 98 | 915.9 |
| 20260509053025 | 16 | 60 | 1.6 | 16.1 | 0.00 | 0.00 | 0.00 | 98 | 916.0 |
| 20260509051225 | 16 | 57 | 1.6 | 11.3 | 0.00 | 0.00 | 0.00 | 98 | 916.3 |
| 20260509050824 | 16 | 63 | 8.0 | 19.3 | 0.00 | 0.00 | 0.00 | 99 | 916.3 |
| 20260509044324 | 16 | 83 | 12.9 | 25.7 | 0.00 | 0.00 | 0.00 | 98 | 916.3 |
| 20260509044225 | 16 | 63 | 3.2 | 25.7 | 0.00 | 0.00 | 0.00 | 98 | 916.3 |
| 20260509043824 | 16 | 67 | 19.3 | 25.7 | 0.00 | 0.00 | 0.00 | 98 | 916.3 |
| 20260509043625 | 16 | 75 | 19.3 | 25.7 | 0.00 | 0.00 | 0.00 | 98 | 916.3 |
| 20260509043326 | 16 | 75 | 6.4 | 25.7 | 0.00 | 0.00 | 0.00 | 98 | 916.4 |
| 20260509042425 | 16 | 102 | 24.1 | 30.6 | 0.00 | 0.00 | 0.00 | 98 | 916.6 |
| 20260509042323 | 16 | 58 | 22.5 | 29.0 | 0.00 | 0.00 | 0.00 | 98 | 916.6 |
| 20260509041825 | 16 | 61 | 3.2 | 24.1 | 0.00 | 0.00 | 0.00 | 98 | 916.8 |
| 20260509041823 | 16 | 83 | 3.2 | 24.1 | 0.00 | 0.00 | 0.00 | 98 | 916.8 |
| 20260509041324 | 16 | 73 | 9.7 | 20.9 | 0.00 | 0.00 | 0.00 | 98 | 916.8 |
| 20260509041224 | 16 | 73 | 0.0 | 19.3 | 0.00 | 0.00 | 0.00 | 98 | 916.9 |
| 20260509040823 | 16 | 82 | 20.9 | 24.1 | 0.00 | 0.00 | 0.00 | 98 | 916.8 |
| 20260509040625 | 16 | 73 | 9.7 | 24.1 | 0.00 | 0.00 | 0.00 | 99 | 916.9 |
| 20260509033024 | 16 | 66 | 17.7 | 24.1 | 0.00 | 0.00 | 0.00 | 98 | 917.0 |
| 20260509032823 | 16 | 75 | 17.7 | 22.5 | 0.00 | 0.00 | 0.00 | 98 | 917.0 |
| 20260509032424 | 16 | 54 | 1.6 | 19.3 | 0.00 | 0.00 | 0.00 | 98 | 917.0 |
| 20260509032323 | 16 | 71 | 20.9 | 27.4 | 0.00 | 0.00 | 0.00 | 98 | 917.0 |
| 20260509031825 | 16 | 69 | 0.0 | 0.0 | 0.00 | 0.00 | 0.00 | 98 | 917.0 |
| 20260509031323 | 16 | 63 | 22.5 | 29.0 | 0.00 | 0.00 | 0.00 | 98 | 917.0 |
| 20260509031224 | 16 | 78 | 24.1 | 29.0 | 0.00 | 0.00 | 0.00 | 98 | 917.0 |
| 20260509030823 | 16 | 44 | 8.0 | 27.4 | 0.00 | 0.00 | 0.00 | 98 | 917.0 |
| 20260509030624 | 16 | 71 | 22.5 | 33.8 | 0.00 | 0.00 | 0.00 | 98 | 916.9 |
| 20260509030323 | 16 | 80 | 16.1 | 22.5 | 0.00 | 0.00 | 0.00 | 98 | 917.1 |
| 20260509030024 | 16 | 33 | 6.4 | 22.5 | 0.00 | 0.00 | 0.00 | 99 | 917.1 |
| 20260509025324 | 16 | 65 | 0.0 | 0.0 | 0.00 | 0.00 | 0.00 | 99 | 917.0 |
| 20260509024323 | 16 | 93 | 14.5 | 30.6 | 0.00 | 0.00 | 0.00 | 98 | 916.9 |
| 20260509024224 | 16 | 70 | 1.6 | 30.6 | 0.00 | 0.00 | 0.00 | 98 | 916.8 |
| 20260509023624 | 16 | 69 | 6.4 | 29.0 | 0.00 | 0.00 | 0.00 | 98 | 916.9 |
| 20260509023322 | 16 | 83 | 4.8 | 35.4 | 0.00 | 0.00 | 0.00 | 98 | 916.8 |
| 20260509022822 | 16 | 81 | 14.5 | 30.6 | 0.00 | 0.00 | 0.00 | 99 | 916.8 |
| 20260509021322 | 16 | 50 | 14.5 | 33.8 | 0.00 | 0.00 | 0.00 | 99 | 917.1 |
| 20260509021224 | 16 | 81 | 0.0 | 27.4 | 0.00 | 0.00 | 0.00 | 99 | 917.0 |
| 20260509012423 | 16 | 88 | 25.7 | 32.2 | 0.00 | 0.00 | 0.00 | 97 | 917.0 |
| 20260509012323 | 16 | 69 | 25.7 | 32.2 | 0.00 | 0.00 | 0.00 | 97 | 917.0 |
| 20260509011824 | 16 | 62 | 29.0 | 35.4 | 0.00 | 0.00 | 0.00 | 97 | 916.9 |
| 20260509011822 | 16 | 92 | 29.0 | 35.4 | 0.00 | 0.00 | 0.00 | 97 | 916.9 |
| 20260509011322 | 16 | 67 | 25.7 | 32.2 | 0.00 | 0.00 | 0.00 | 97 | 917.0 |
| 20260509011223 | 16 | 87 | 27.4 | 32.2 | 0.00 | 0.00 | 0.00 | 97 | 917.0 |
| 20260509010623 | 16 | 63 | 29.0 | 37.0 | 0.00 | 0.00 | 0.00 | 97 | 916.8 |
| 20260509010023 | 16 | 76 | 30.6 | 37.0 | 0.00 | 0.00 | 0.00 | 97 | 916.6 |
| 20260509005822 | 16 | 79 | 27.4 | 37.0 | 0.00 | 0.00 | 0.00 | 97 | 916.6 |
| 20260509005423 | 16 | 77 | 4.8 | 37.0 | 0.00 | 0.00 | 0.00 | 98 | 916.6 |
| 20260509005322 | 17 | 72 | 24.1 | 32.2 | 0.00 | 0.00 | 0.00 | 97 | 916.7 |
| 20260509004823 | 17 | 66 | 14.5 | 33.8 | 0.00 | 0.00 | 0.00 | 97 | 916.6 |
| 20260509004322 | 16 | 73 | 0.0 | 0.0 | 0.00 | 0.00 | 0.00 | 98 | 916.6 |
| 20260509004223 | 16 | 57 | 0.0 | 24.1 | 0.00 | 0.00 | 0.00 | 97 | 916.7 |
| 20260509003822 | 17 | 91 | 29.0 | 37.0 | 0.03 | 0.03 | 0.00 | 97 | 916.5 |
| 20260509003623 | 17 | 77 | 24.1 | 35.4 | 0.03 | 0.03 | 0.00 | 97 | 916.6 |
| 20260509003322 | 17 | 61 | 22.5 | 35.4 | 0.03 | 0.03 | 0.00 | 97 | 916.6 |
| 20260509003023 | 17 | 70 | 24.1 | 35.4 | 0.03 | 0.03 | 0.00 | 97 | 916.6 |
| 20260509002822 | 17 | 61 | 25.7 | 35.4 | 0.03 | 0.03 | 0.00 | 97 | 916.5 |
| 20260509002423 | 17 | 81 | 4.8 | 29.0 | 0.00 | 0.00 | 0.00 | 97 | 916.4 |
| 20260509001823 | 17 | 39 | 25.7 | 33.8 | 0.00 | 0.00 | 0.00 | 97 | 916.4 |
| 20260509001821 | 17 | 74 | 25.7 | 33.8 | 0.00 | 0.00 | 0.00 | 97 | 916.5 |
| 20260509001321 | 17 | 62 | 25.7 | 33.8 | 0.00 | 0.00 | 0.00 | 97 | 916.3 |
| 20260509001223 | 17 | 73 | 24.1 | 33.8 | 0.00 | 0.00 | 0.00 | 97 | 916.2 |
| 20260509000821 | 17 | 58 | 27.4 | 33.8 | 0.00 | 0.00 | 0.00 | 97 | 916.2 |
| 20260509000623 | 17 | 86 | 14.5 | 29.0 | 0.00 | 0.00 | 0.00 | 97 | 916.0 |
| 20260509000321 | 17 | 74 | 27.4 | 38.6 | 0.03 | 0.03 | 0.00 | 97 | 916.0 |
| 20260509000023 | 17 | 53 | 29.0 | 38.6 | 0.03 | 0.03 | 0.00 | 97 | 916.1 |
| 20260508235821 | 17 | 76 | 30.6 | 35.4 | 0.03 | 0.03 | 0.00 | 97 | 916.1 |
| 20260508235422 | 17 | 58 | 27.4 | 35.4 | 0.03 | 0.03 | 0.00 | 97 | 916.2 |
| 20260508235321 | 17 | 70 | 29.0 | 35.4 | 0.03 | 0.03 | 0.00 | 97 | 916.2 |
| 20260508234823 | 17 | 81 | 14.5 | 27.4 | 0.00 | 0.00 | 0.00 | 97 | 916.1 |
| 20260508234321 | 17 | 75 | 25.7 | 40.2 | 0.03 | 0.03 | 0.00 | 97 | 916.2 |
| 20260508234222 | 17 | 44 | 24.1 | 40.2 | 0.03 | 0.03 | 0.00 | 97 | 916.0 |
| 20260508233821 | 17 | 67 | 25.7 | 40.2 | 0.03 | 0.03 | 0.00 | 97 | 916.2 |
| 20260508233622 | 17 | 75 | 27.4 | 40.2 | 0.03 | 0.03 | 0.00 | 97 | 916.2 |
| 20260508233321 | 17 | 56 | 4.8 | 32.2 | 0.00 | 0.00 | 0.00 | 98 | 916.1 |
| 20260508233022 | 17 | 76 | 25.7 | 32.2 | 0.03 | 0.03 | 0.00 | 97 | 916.1 |
| 20260508232821 | 17 | 71 | 20.9 | 32.2 | 0.03 | 0.03 | 0.00 | 97 | 916.2 |
| 20260508232422 | 17 | 96 | 22.5 | 32.2 | 0.03 | 0.03 | 0.00 | 97 | 916.1 |
| 20260508232321 | 17 | 79 | 24.1 | 32.2 | 0.03 | 0.03 | 0.00 | 97 | 916.1 |
| 20260508231823 | 17 | 76 | 24.1 | 32.2 | 0.00 | 0.00 | 0.00 | 97 | 916.0 |
| 20260508231321 | 17 | 58 | 25.7 | 35.4 | 0.15 | 0.25 | 0.00 | 97 | 915.9 |
| 20260508231222 | 17 | 53 | 27.4 | 35.4 | 0.15 | 0.25 | 0.00 | 97 | 915.8 |
| 20260508230821 | 17 | 71 | 25.7 | 35.4 | 0.15 | 0.25 | 0.00 | 97 | 915.8 |
| 20260508230622 | 17 | 69 | 27.4 | 35.4 | 0.15 | 0.25 | 0.00 | 97 | 915.7 |
| 20260508230321 | 17 | 88 | 25.7 | 35.4 | 0.15 | 0.23 | 0.00 | 97 | 915.5 |
| 20260508230022 | 17 | 67 | 24.1 | 38.6 | 0.15 | 0.23 | 0.00 | 97 | 915.8 |
| 20260508225821 | 17 | 35 | 27.4 | 38.6 | 0.15 | 0.23 | 0.00 | 97 | 915.7 |
| 20260508225422 | 17 | 61 | 25.7 | 38.6 | 0.15 | 0.23 | 0.00 | 97 | 915.7 |
| 20260508225321 | 17 | 66 | 27.4 | 38.6 | 0.15 | 0.23 | 0.00 | 97 | 915.7 |
| 20260508224822 | 17 | 77 | 25.7 | 38.6 | 0.15 | 0.23 | 0.00 | 97 | 915.5 |
| 20260508224321 | 17 | 62 | 27.4 | 43.5 | 0.15 | 0.18 | 0.00 | 97 | 915.6 |
| 20260508224222 | 17 | 85 | 29.0 | 43.5 | 0.15 | 0.18 | 0.00 | 97 | 915.4 |
| 20260508223820 | 17 | 79 | 27.4 | 43.5 | 0.15 | 0.18 | 0.00 | 97 | 915.4 |
| 20260508223622 | 17 | 84 | 33.8 | 43.5 | 0.15 | 0.18 | 0.00 | 97 | 915.2 |
| 20260508223322 | 17 | 67 | 32.2 | 43.5 | 0.13 | 0.15 | 0.00 | 97 | 915.3 |
| 20260508223022 | 17 | 62 | 29.0 | 43.5 | 0.08 | 0.13 | 0.00 | 97 | 915.2 |
| 20260508222820 | 17 | 52 | 27.4 | 43.5 | 0.08 | 0.13 | 0.00 | 97 | 915.2 |
| 20260508222422 | 17 | 85 | 30.6 | 45.1 | 0.13 | 0.13 | 0.00 | 97 | 915.2 |
| 20260508222320 | 17 | 61 | 30.6 | 45.1 | 0.13 | 0.13 | 0.00 | 97 | 915.1 |
| 20260508221822 | 17 | 75 | 33.8 | 45.1 | 0.13 | 0.13 | 0.00 | 97 | 915.1 |
| 20260508221820 | 17 | 76 | 33.8 | 45.1 | 0.13 | 0.13 | 0.00 | 97 | 915.0 |
| 20260508221320 | 17 | 45 | 33.8 | 43.5 | 0.08 | 0.08 | 0.00 | 97 | 914.9 |
| 20260508221222 | 17 | 71 | 30.6 | 43.5 | 0.08 | 0.08 | 0.00 | 97 | 914.9 |
| 20260508220820 | 17 | 74 | 33.8 | 43.5 | 0.08 | 0.08 | 0.00 | 97 | 914.8 |
| 20260508220622 | 17 | 76 | 33.8 | 45.1 | 0.08 | 0.08 | 0.00 | 97 | 914.8 |
| 20260508220320 | 17 | 71 | 35.4 | 45.1 | 0.05 | 0.05 | 0.00 | 97 | 915.0 |
| 20260508220022 | 17 | 70 | 32.2 | 45.1 | 0.05 | 0.05 | 0.00 | 97 | 914.9 |
| 20260508215820 | 17 | 76 | 33.8 | 45.1 | 0.05 | 0.05 | 0.00 | 97 | 914.7 |
| 20260508215422 | 17 | 71 | 33.8 | 46.7 | 0.05 | 0.05 | 0.00 | 97 | 914.8 |
| 20260508215320 | 17 | 79 | 33.8 | 46.7 | 0.05 | 0.05 | 0.00 | 97 | 914.6 |
| 20260508214822 | 17 | 67 | 38.6 | 46.7 | 0.05 | 0.05 | 0.00 | 97 | 914.6 |
| 20260508214820 | 17 | 71 | 38.6 | 46.7 | 0.05 | 0.05 | 0.00 | 97 | 914.6 |
| 20260508214320 | 17 | 62 | 35.4 | 46.7 | 0.03 | 0.03 | 0.00 | 97 | 914.4 |
| 20260508214222 | 17 | 71 | 33.8 | 45.1 | 0.03 | 0.03 | 0.00 | 97 | 914.2 |
| 20260508213820 | 17 | 71 | 35.4 | 45.1 | 0.03 | 0.03 | 0.00 | 97 | 914.6 |
| 20260508213622 | 17 | 65 | 33.8 | 45.1 | 0.03 | 0.03 | 0.00 | 97 | 914.7 |
| 20260508213320 | 17 | 64 | 35.4 | 43.5 | 0.03 | 0.03 | 0.00 | 97 | 914.5 |
| 20260508213022 | 17 | 59 | 35.4 | 45.1 | 0.03 | 0.03 | 0.00 | 97 | 914.4 |
| 20260508212821 | 17 | 77 | 38.6 | 45.1 | 0.03 | 0.03 | 0.00 | 97 | 914.4 |
| 20260508212421 | 17 | 84 | 33.8 | 45.1 | 0.00 | 0.00 | 0.00 | 97 | 914.5 |
| 20260508212320 | 17 | 78 | 37.0 | 45.1 | 0.00 | 0.00 | 0.00 | 97 | 914.5 |
| 20260508211823 | 17 | 70 | 0.0 | 0.0 | 0.00 | 0.00 | 0.00 | 97 | 914.5 |
| 20260508211821 | 17 | 56 | 0.0 | 0.0 | 0.00 | 0.00 | 0.00 | 97 | 914.4 |
| 20260508211222 | 17 | 63 | 30.6 | 45.1 | 0.03 | 0.03 | 0.00 | 97 | 914.6 |
| 20260508210820 | 17 | 66 | 33.8 | 46.7 | 0.03 | 0.03 | 0.00 | 97 | 914.4 |
| 20260508210621 | 17 | 66 | 35.4 | 46.7 | 0.03 | 0.03 | 0.00 | 97 | 914.4 |
| 20260508210320 | 17 | 71 | 35.4 | 46.7 | 0.03 | 0.03 | 0.00 | 97 | 914.2 |
| 20260508210022 | 17 | 79 | 37.0 | 46.7 | 0.03 | 0.03 | 0.00 | 97 | 914.1 |
| 20260508205820 | 17 | 74 | 32.2 | 46.7 | 0.03 | 0.03 | 0.00 | 97 | 914.1 |
| 20260508205421 | 17 | 81 | 37.0 | 46.7 | 0.03 | 0.03 | 0.00 | 97 | 913.8 |
| 20260508205320 | 17 | 84 | 35.4 | 46.7 | 0.03 | 0.03 | 0.00 | 97 | 913.9 |
| 20260508204822 | 17 | 97 | 35.4 | 45.1 | 0.03 | 0.03 | 0.00 | 97 | 914.1 |
| 20260508204820 | 17 | 42 | 35.4 | 45.1 | 0.03 | 0.03 | 0.00 | 97 | 914.0 |
| 20260508204320 | 17 | 63 | 32.2 | 46.7 | 0.00 | 0.00 | 0.00 | 97 | 914.1 |
| 20260508204221 | 17 | 68 | 30.6 | 46.7 | 0.00 | 0.00 | 0.00 | 97 | 914.2 |
| 20260508203820 | 17 | 65 | 33.8 | 46.7 | 0.00 | 0.00 | 0.00 | 97 | 914.0 |
| 20260508203621 | 17 | 63 | 33.8 | 46.7 | 0.00 | 0.00 | 0.00 | 97 | 914.0 |
| 20260508203320 | 17 | 83 | 38.6 | 46.7 | 0.18 | 0.18 | 0.00 | 97 | 913.9 |
| 20260508203021 | 17 | 80 | 38.6 | 46.7 | 0.18 | 0.18 | 0.00 | 97 | 913.6 |
| 20260508202820 | 17 | 89 | 37.0 | 45.1 | 0.18 | 0.18 | 0.00 | 97 | 913.6 |
| 20260508202421 | 17 | 70 | 38.6 | 51.5 | 0.15 | 0.15 | 0.00 | 97 | 913.8 |
| 20260508202320 | 17 | 73 | 38.6 | 51.5 | 0.15 | 0.15 | 0.00 | 97 | 913.8 |
| 20260508201821 | 17 | 73 | 41.8 | 51.5 | 0.15 | 0.15 | 0.00 | 97 | 913.7 |
| 20260508201320 | 17 | 74 | 41.8 | 49.9 | 0.15 | 0.15 | 0.00 | 97 | 913.7 |
| 20260508201221 | 17 | 72 | 41.8 | 49.9 | 0.13 | 0.13 | 0.00 | 97 | 913.5 |
| 20260508200820 | 17 | 73 | 38.6 | 48.3 | 0.13 | 0.13 | 0.00 | 97 | 913.6 |
| 20260508200621 | 17 | 64 | 37.0 | 46.7 | 0.13 | 0.13 | 0.00 | 97 | 914.0 |
| 20260508200320 | 17 | 80 | 35.4 | 46.7 | 0.13 | 0.13 | 0.00 | 98 | 913.8 |
| 20260508195819 | 17 | 68 | 37.0 | 46.7 | 0.08 | 0.08 | 0.00 | 98 | 913.7 |
| 20260508195421 | 17 | 71 | 37.0 | 46.7 | 0.08 | 0.08 | 0.00 | 98 | 913.8 |
| 20260508195319 | 17 | 69 | 38.6 | 48.3 | 0.08 | 0.08 | 0.00 | 98 | 913.9 |
| 20260508194821 | 17 | 86 | 37.0 | 48.3 | 0.08 | 0.08 | 0.00 | 98 | 913.9 |
| 20260508194819 | 17 | 80 | 37.0 | 48.3 | 0.08 | 0.08 | 0.00 | 98 | 913.9 |
| 20260508194319 | 17 | 32 | 33.8 | 45.1 | 0.05 | 0.05 | 0.00 | 98 | 913.8 |
| 20260508194221 | 17 | 82 | 33.8 | 45.1 | 0.03 | 0.03 | 0.00 | 98 | 913.9 |
| 20260508193819 | 18 | 92 | 35.4 | 45.1 | 0.03 | 0.03 | 0.00 | 98 | 913.9 |
| 20260508193620 | 18 | 66 | 35.4 | 41.8 | 0.00 | 0.00 | 0.00 | 98 | 914.1 |
| 20260508193319 | 18 | 85 | 11.3 | 41.8 | 0.00 | 0.00 | 0.00 | 98 | 913.8 |
| 20260508193020 | 18 | 81 | 32.2 | 41.8 | 0.00 | 0.00 | 0.00 | 98 | 914.0 |
| 20260508192819 | 17 | 62 | 3.2 | 30.6 | 0.00 | 0.00 | 0.00 | 98 | 914.1 |
| 20260508192420 | 18 | 73 | 38.6 | 48.3 | 0.08 | 0.08 | 0.00 | 98 | 913.7 |
| 20260508192319 | 18 | 91 | 40.2 | 48.3 | 0.08 | 0.08 | 0.00 | 98 | 913.8 |
| 20260508191821 | 18 | 56 | 32.2 | 43.5 | 0.05 | 0.05 | 0.00 | 98 | 913.9 |
| 20260508191819 | 18 | 78 | 32.2 | 43.5 | 0.05 | 0.05 | 0.00 | 98 | 914.1 |
| 20260508191319 | 18 | 78 | 32.2 | 43.5 | 0.03 | 0.03 | 0.00 | 98 | 914.2 |
| 20260508191220 | 18 | 78 | 32.2 | 43.5 | 0.03 | 0.03 | 0.00 | 98 | 914.2 |
| 20260508190819 | 18 | 60 | 32.2 | 43.5 | 0.00 | 0.00 | 0.00 | 98 | 914.2 |
| 20260508190620 | 18 | 84 | 33.8 | 43.5 | 0.00 | 0.00 | 0.00 | 98 | 913.7 |
| 20260508190320 | 18 | 74 | 33.8 | 43.5 | 0.28 | 0.28 | 0.00 | 98 | 913.8 |
| 20260508190020 | 18 | 85 | 30.6 | 41.8 | 0.25 | 0.25 | 0.00 | 98 | 914.0 |
| 20260508185819 | 18 | 45 | 32.2 | 41.8 | 0.23 | 0.23 | 0.00 | 98 | 914.0 |
| 20260508185420 | 18 | 74 | 29.0 | 45.1 | 0.18 | 0.18 | 0.00 | 98 | 914.1 |
| 20260508185319 | 18 | 89 | 29.0 | 45.1 | 0.18 | 0.18 | 0.00 | 98 | 914.0 |
| 20260508184821 | 18 | 66 | 35.4 | 45.1 | 0.15 | 0.15 | 0.00 | 98 | 914.1 |
| 20260508184819 | 18 | 54 | 35.4 | 45.1 | 0.15 | 0.15 | 0.00 | 98 | 914.1 |
| 20260508184319 | 18 | 74 | 29.0 | 41.8 | 0.13 | 0.13 | 0.00 | 98 | 914.4 |
| 20260508184220 | 18 | 73 | 30.6 | 41.8 | 0.13 | 0.13 | 0.00 | 98 | 914.4 |
| 20260508183819 | 18 | 56 | 32.2 | 46.7 | 0.08 | 0.08 | 0.00 | 98 | 914.2 |
| 20260508183620 | 18 | 75 | 30.6 | 46.7 | 0.08 | 0.08 | 0.00 | 98 | 914.2 |
| 20260508183319 | 18 | 83 | 32.2 | 46.7 | 0.05 | 0.05 | 0.00 | 98 | 914.3 |
| 20260508183020 | 18 | 69 | 33.8 | 46.7 | 0.05 | 0.05 | 0.00 | 98 | 914.4 |
| 20260508182819 | 18 | 60 | 30.6 | 45.1 | 0.03 | 0.03 | 0.00 | 98 | 914.2 |
| 20260508182420 | 18 | 78 | 32.2 | 45.1 | 0.03 | 0.03 | 0.00 | 98 | 914.2 |
| 20260508182319 | 18 | 83 | 32.2 | 45.1 | 0.03 | 0.03 | 0.00 | 98 | 914.0 |
| 20260508181820 | 18 | 64 | 3.2 | 43.5 | 0.00 | 0.00 | 0.00 | 98 | 914.3 |
| 20260508181319 | 18 | 69 | 33.8 | 46.7 | 0.15 | 0.15 | 0.00 | 98 | 914.3 |
| 20260508181220 | 18 | 83 | 33.8 | 46.7 | 0.15 | 0.15 | 0.00 | 98 | 914.3 |
| 20260508180820 | 18 | 73 | 32.2 | 46.7 | 0.05 | 0.05 | 0.00 | 98 | 914.3 |
| 20260508180620 | 18 | 90 | 32.2 | 46.7 | 0.05 | 0.05 | 0.00 | 98 | 914.2 |
| 20260508180319 | 18 | 40 | 27.4 | 35.4 | 0.03 | 0.03 | 0.00 | 98 | 914.3 |
| 20260508180020 | 18 | 82 | 27.4 | 35.4 | 0.00 | 0.00 | 0.00 | 98 | 914.4 |
| 20260508175420 | 18 | 75 | 27.4 | 38.6 | 0.08 | 0.08 | 0.00 | 98 | 914.5 |
| 20260508175318 | 18 | 70 | 27.4 | 38.6 | 0.08 | 0.08 | 0.00 | 98 | 914.5 |
| 20260508174820 | 18 | 68 | 30.6 | 37.0 | 0.05 | 0.05 | 0.00 | 98 | 914.5 |
| 20260508174818 | 18 | 60 | 30.6 | 37.0 | 0.05 | 0.05 | 0.00 | 98 | 914.4 |
| 20260508174318 | 18 | 52 | 22.5 | 30.6 | 0.03 | 0.03 | 0.00 | 98 | 914.6 |
| 20260508174220 | 18 | 77 | 24.1 | 30.6 | 0.03 | 0.03 | 0.00 | 98 | 914.6 |
| 20260508173818 | 18 | 75 | 20.9 | 29.0 | 0.00 | 0.00 | 0.00 | 98 | 914.8 |
| 20260508173619 | 18 | 56 | 19.3 | 29.0 | 0.00 | 0.00 | 0.00 | 98 | 914.9 |
| 20260508173318 | 18 | 77 | 22.5 | 29.0 | 0.00 | 0.00 | 0.00 | 98 | 914.8 |
| 20260508173019 | 18 | 66 | 3.2 | 27.4 | 0.00 | 0.00 | 0.00 | 98 | 914.8 |
| 20260508172818 | 18 | 80 | 24.1 | 35.4 | 0.05 | 0.05 | 0.00 | 97 | 914.8 |
| 20260508172420 | 18 | 69 | 29.0 | 35.4 | 0.05 | 0.05 | 0.00 | 98 | 914.8 |
| 20260508172318 | 18 | 76 | 27.4 | 35.4 | 0.05 | 0.05 | 0.00 | 98 | 914.8 |
| 20260508171820 | 18 | 92 | 25.7 | 35.4 | 0.05 | 0.05 | 0.00 | 98 | 914.8 |
| 20260508171318 | 18 | 80 | 29.0 | 35.4 | 0.05 | 0.05 | 0.00 | 98 | 914.9 |
| 20260508171219 | 18 | 79 | 29.0 | 35.4 | 0.03 | 0.03 | 0.00 | 98 | 914.7 |
| 20260508170818 | 18 | 86 | 27.4 | 49.9 | 0.03 | 0.03 | 0.00 | 98 | 914.8 |
| 20260508170619 | 18 | 86 | 27.4 | 49.9 | 0.03 | 0.03 | 0.00 | 98 | 914.7 |
| 20260508170318 | 18 | 89 | 30.6 | 49.9 | 0.03 | 0.03 | 0.00 | 97 | 914.6 |
| 20260508170019 | 18 | 95 | 29.0 | 38.6 | 0.03 | 0.03 | 0.00 | 98 | 914.5 |
| 20260508165818 | 18 | 77 | 25.7 | 38.6 | 0.03 | 0.03 | 0.00 | 98 | 914.8 |
| 20260508165419 | 18 | 83 | 24.1 | 35.4 | 0.03 | 0.03 | 0.00 | 98 | 914.8 |
| 20260508165318 | 18 | 77 | 25.7 | 35.4 | 0.03 | 0.03 | 0.00 | 98 | 914.8 |
| 20260508164820 | 18 | 81 | 8.0 | 20.9 | 0.00 | 0.00 | 0.00 | 98 | 915.0 |
| 20260508164818 | 18 | 79 | 8.0 | 20.9 | 0.00 | 0.00 | 0.00 | 98 | 915.0 |
| 20260508164318 | 18 | 71 | 0.0 | 20.9 | 0.00 | 0.00 | 0.00 | 98 | 915.1 |
| 20260508164219 | 18 | 76 | 19.3 | 30.6 | 0.00 | 0.00 | 0.00 | 98 | 915.1 |
| 20260508162818 | 18 | 67 | 19.3 | 30.6 | 0.00 | 0.00 | 0.00 | 98 | 915.3 |
| 20260508162419 | 19 | 96 | 14.5 | 19.3 | 0.00 | 0.00 | 0.00 | 98 | 915.2 |
| 20260508162318 | 19 | 90 | 11.3 | 17.7 | 0.00 | 0.00 | 0.00 | 98 | 915.3 |
| 20260508161819 | 19 | 76 | 14.5 | 17.7 | 0.00 | 0.00 | 0.00 | 98 | 915.4 |
| 20260508161318 | 19 | 52 | 14.5 | 17.7 | 0.00 | 0.00 | 0.00 | 98 | 915.4 |
| 20260508161219 | 19 | 70 | 9.7 | 17.7 | 0.00 | 0.00 | 0.00 | 99 | 915.4 |
| 20260508155318 | 20 | 76 | 1.6 | 17.7 | 0.00 | 0.00 | 0.00 | 98 | 915.6 |
| 20260508154819 | 20 | 65 | 14.5 | 20.9 | 0.00 | 0.00 | 0.00 | 98 | 915.6 |
| 20260508154817 | 20 | 46 | 14.5 | 20.9 | 0.00 | 0.00 | 0.00 | 98 | 915.7 |
| 20260508154317 | 20 | 62 | 17.7 | 24.1 | 0.00 | 0.00 | 0.00 | 98 | 915.7 |
| 20260508154220 | 20 | 59 | 16.1 | 24.1 | 0.00 | 0.00 | 0.00 | 98 | 915.6 |
| 20260508153817 | 20 | 65 | 16.1 | 24.1 | 0.00 | 0.00 | 0.00 | 98 | 915.7 |
| 20260508153619 | 20 | 51 | 3.2 | 20.9 | 0.00 | 0.00 | 0.00 | 98 | 915.6 |
| 20260508153317 | 20 | 57 | 16.1 | 20.9 | 0.00 | 0.00 | 0.00 | 98 | 915.7 |
| 20260508153019 | 20 | 79 | 17.7 | 25.7 | 0.00 | 0.00 | 0.00 | 98 | 915.7 |
| 20260508152818 | 20 | 67 | 19.3 | 25.7 | 0.00 | 0.00 | 0.00 | 98 | 915.6 |
| 20260508152420 | 20 | 51 | 14.5 | 25.7 | 0.00 | 0.00 | 0.00 | 98 | 915.6 |
| 20260508152317 | 20 | 68 | 3.2 | 22.5 | 0.00 | 0.00 | 0.00 | 98 | 915.7 |
| 20260508151819 | 20 | 47 | 19.3 | 24.1 | 0.00 | 0.00 | 0.00 | 98 | 915.7 |
| 20260508151817 | 20 | 61 | 19.3 | 24.1 | 0.00 | 0.00 | 0.00 | 98 | 915.7 |
| 20260508151317 | 20 | 59 | 19.3 | 24.1 | 0.00 | 0.00 | 0.00 | 98 | 915.8 |
| 20260508151218 | 20 | 54 | 19.3 | 24.1 | 0.00 | 0.00 | 0.00 | 98 | 915.8 |
| 20260508150817 | 20 | 52 | 19.3 | 22.5 | 0.00 | 0.00 | 0.00 | 98 | 915.8 |
| 20260508150618 | 20 | 82 | 11.3 | 22.5 | 0.00 | 0.00 | 0.00 | 98 | 915.9 |
| 20260508150317 | 20 | 64 | 19.3 | 24.1 | 0.00 | 0.00 | 0.00 | 98 | 915.9 |
| 20260508150018 | 20 | 60 | 19.3 | 24.1 | 0.00 | 0.00 | 0.00 | 98 | 915.8 |
| 20260508145817 | 19 | 64 | 20.9 | 24.1 | 0.00 | 0.00 | 0.00 | 98 | 915.8 |
| 20260508145418 | 19 | 52 | 9.7 | 19.3 | 0.00 | 0.00 | 0.00 | 99 | 915.9 |
| 20260508145317 | 19 | 58 | 1.6 | 19.3 | 0.00 | 0.00 | 0.00 | 99 | 916.1 |
| 20260508144317 | 20 | 46 | 19.3 | 22.5 | 0.00 | 0.00 | 0.00 | 98 | 916.0 |
| 20260508144218 | 20 | 59 | 19.3 | 22.5 | 0.00 | 0.00 | 0.00 | 98 | 916.1 |
| 20260508141818 | 20 | 45 | 12.9 | 16.1 | 0.00 | 0.00 | 0.00 | 98 | 916.2 |
| 20260508141316 | 20 | 49 | 12.9 | 16.1 | 0.00 | 0.00 | 0.00 | 98 | 916.1 |
| 20260508141218 | 20 | 32 | 12.9 | 16.1 | 0.00 | 0.00 | 0.00 | 98 | 916.1 |
| 20260508140817 | 20 | 50 | 12.9 | 17.7 | 0.00 | 0.00 | 0.00 | 98 | 916.1 |
| 20260508140618 | 20 | 55 | 11.3 | 17.7 | 0.00 | 0.00 | 0.00 | 98 | 916.0 |
| 20260508140317 | 20 | 58 | 14.5 | 17.7 | 0.00 | 0.00 | 0.00 | 98 | 916.0 |
| 20260508140018 | 20 | 49 | 8.0 | 14.5 | 0.00 | 0.00 | 0.00 | 98 | 916.1 |
| 20260508135817 | 20 | 46 | 4.8 | 14.5 | 0.00 | 0.00 | 0.00 | 98 | 916.1 |
| 20260508135418 | 20 | 36 | 11.3 | 16.1 | 0.00 | 0.00 | 0.00 | 98 | 916.0 |
| 20260508135316 | 20 | 45 | 11.3 | 16.1 | 0.00 | 0.00 | 0.00 | 98 | 916.1 |
| 20260508134818 | 20 | 18 | 4.8 | 12.9 | 0.00 | 0.00 | 0.00 | 98 | 916.0 |
| 20260508134816 | 20 | 19 | 4.8 | 12.9 | 0.00 | 0.00 | 0.00 | 98 | 916.0 |
| 20260508134318 | 20 | 40 | 11.3 | 14.5 | 0.00 | 0.00 | 0.00 | 98 | 915.9 |
| 20260508134218 | 20 | 35 | 11.3 | 14.5 | 0.00 | 0.00 | 0.00 | 98 | 915.9 |
| 20260508133817 | 20 | 38 | 11.3 | 12.9 | 0.00 | 0.00 | 0.00 | 98 | 915.8 |
| 20260508133618 | 20 | 48 | 11.3 | 12.9 | 0.00 | 0.00 | 0.00 | 98 | 915.8 |
| 20260508133317 | 20 | 52 | 11.3 | 12.9 | 0.00 | 0.00 | 0.00 | 98 | 915.8 |
| 20260508132816 | 20 | 51 | 11.3 | 12.9 | 0.00 | 0.00 | 0.00 | 98 | 915.7 |
| 20260508132418 | 20 | 35 | 11.3 | 12.9 | 0.00 | 0.00 | 0.00 | 98 | 915.7 |
| 20260508132316 | 20 | 56 | 11.3 | 12.9 | 0.00 | 0.00 | 0.00 | 98 | 915.8 |
| 20260508131818 | 20 | 67 | 3.2 | 12.9 | 0.00 | 0.00 | 0.00 | 98 | 915.8 |
| 20260508131816 | 20 | 49 | 3.2 | 12.9 | 0.00 | 0.00 | 0.00 | 98 | 915.8 |
| 20260508131316 | 20 | 40 | 9.7 | 12.9 | 0.00 | 0.00 | 0.00 | 98 | 915.7 |
| 20260508131217 | 20 | 25 | 4.8 | 12.9 | 0.00 | 0.00 | 0.00 | 98 | 915.8 |
| 20260508130816 | 20 | 48 | 8.0 | 11.3 | 0.00 | 0.00 | 0.00 | 98 | 915.8 |
| 20260508130617 | 20 | 45 | 8.0 | 9.7 | 0.00 | 0.00 | 0.00 | 98 | 915.8 |
| 20260508130317 | 20 | 28 | 0.0 | 8.0 | 0.00 | 0.00 | 0.00 | 98 | 915.8 |
| 20260508130017 | 20 | 25 | 8.0 | 11.3 | 0.00 | 0.00 | 0.00 | 98 | 915.8 |
| 20260508125816 | 20 | 35 | 3.2 | 8.0 | 0.00 | 0.00 | 0.00 | 98 | 915.8 |
| 20260508125417 | 20 | 26 | 3.2 | 6.4 | 0.00 | 0.00 | 0.00 | 98 | 915.7 |
| 20260508125316 | 20 | 27 | 1.6 | 6.4 | 0.00 | 0.00 | 0.00 | 98 | 915.7 |
| 20260508124818 | 20 | 34 | 4.8 | 8.0 | 0.00 | 0.00 | 0.00 | 98 | 915.7 |
| 20260508124816 | 20 | 32 | 4.8 | 8.0 | 0.00 | 0.00 | 0.00 | 98 | 915.7 |
| 20260508124316 | 20 | 55 | 4.8 | 9.7 | 0.00 | 0.00 | 0.00 | 99 | 915.6 |
| 20260508124217 | 20 | 63 | 0.0 | 8.0 | 0.00 | 0.00 | 0.00 | 99 | 915.6 |
| 20260508122316 | 20 | 56 | 6.4 | 11.3 | 0.00 | 0.00 | 0.00 | 98 | 915.3 |
| 20260508121817 | 20 | 26 | 8.0 | 11.3 | 0.00 | 0.00 | 0.00 | 98 | 915.3 |
| 20260508121217 | 20 | 28 | 4.8 | 11.3 | 0.00 | 0.00 | 0.00 | 97 | 915.3 |
| 20260508120816 | 20 | 27 | 8.0 | 12.9 | 0.00 | 0.00 | 0.00 | 98 | 915.1 |
| 20260508120617 | 20 | 44 | 9.7 | 12.9 | 0.00 | 0.00 | 0.00 | 97 | 915.1 |
| 20260508120316 | 20 | 55 | 8.0 | 11.3 | 0.00 | 0.00 | 0.00 | 97 | 914.9 |
| 20260508115816 | 20 | 37 | 8.0 | 11.3 | 0.00 | 0.00 | 0.00 | 97 | 914.8 |
| 20260508115418 | 20 | 38 | 8.0 | 11.3 | 0.00 | 0.00 | 0.00 | 97 | 914.9 |
| 20260508115316 | 20 | 63 | 6.4 | 11.3 | 0.00 | 0.00 | 0.00 | 97 | 914.9 |
| 20260508114817 | 20 | 73 | 3.2 | 9.7 | 0.00 | 0.00 | 0.00 | 98 | 914.9 |
| 20260508114315 | 20 | 50 | 4.8 | 8.0 | 0.00 | 0.00 | 0.00 | 97 | 914.8 |
| 20260508114217 | 20 | 79 | 3.2 | 8.0 | 0.00 | 0.00 | 0.00 | 97 | 914.9 |
| 20260508113815 | 20 | 12 | 3.2 | 8.0 | 0.00 | 0.00 | 0.00 | 97 | 914.8 |
| 20260508113617 | 20 | 57 | 4.8 | 8.0 | 0.00 | 0.00 | 0.00 | 97 | 914.8 |
| 20260508113316 | 20 | 42 | 3.2 | 6.4 | 0.00 | 0.00 | 0.00 | 97 | 914.9 |
| 20260508112815 | 20 | 40 | 3.2 | 4.8 | 0.00 | 0.00 | 0.00 | 97 | 914.8 |
| 20260508112417 | 20 | 65 | 1.6 | 4.8 | 0.00 | 0.00 | 0.00 | 97 | 914.8 |
| 20260508112315 | 20 | 38 | 4.8 | 8.0 | 0.00 | 0.00 | 0.00 | 97 | 914.8 |
| 20260508111817 | 20 | 40 | 4.8 | 8.0 | 0.00 | 0.00 | 0.00 | 97 | 914.7 |
| 20260508111815 | 20 | 43 | 4.8 | 8.0 | 0.00 | 0.00 | 0.00 | 97 | 914.7 |
| 20260508111315 | 20 | 20 | 6.4 | 9.7 | 0.00 | 0.00 | 0.00 | 97 | 914.7 |
| 20260508110815 | 20 | 10 | 8.0 | 9.7 | 0.00 | 0.00 | 0.00 | 97 | 914.6 |
| 20260508110617 | 20 | 51 | 6.4 | 8.0 | 0.00 | 0.00 | 0.00 | 97 | 914.6 |
| 20260508110316 | 20 | 41 | 6.4 | 8.0 | 0.00 | 0.00 | 0.00 | 97 | 914.5 |
| 20260508110017 | 20 | 53 | 8.0 | 9.7 | 0.00 | 0.00 | 0.00 | 97 | 914.5 |
| 20260508105817 | 20 | 51 | 6.4 | 9.7 | 0.00 | 0.00 | 0.00 | 97 | 914.5 |
| 20260508105416 | 20 | 45 | 6.4 | 9.7 | 0.00 | 0.00 | 0.00 | 97 | 914.5 |
| 20260508105315 | 20 | 46 | 6.4 | 9.7 | 0.00 | 0.00 | 0.00 | 97 | 914.5 |
| 20260508104817 | 20 | 61 | 1.6 | 9.7 | 0.00 | 0.00 | 0.00 | 97 | 914.4 |
| 20260508104315 | 20 | 44 | 9.7 | 11.3 | 0.00 | 0.00 | 0.00 | 97 | 914.2 |
| 20260508104216 | 20 | 52 | 8.0 | 11.3 | 0.00 | 0.00 | 0.00 | 97 | 914.3 |
| 20260508103815 | 20 | 54 | 6.4 | 9.7 | 0.00 | 0.00 | 0.00 | 97 | 914.3 |
| 20260508103616 | 20 | 45 | 6.4 | 9.7 | 0.00 | 0.00 | 0.00 | 97 | 914.3 |
| 20260508103315 | 20 | 24 | 6.4 | 8.0 | 0.00 | 0.00 | 0.00 | 97 | 914.3 |
| 20260508103016 | 20 | 35 | 4.8 | 6.4 | 0.00 | 0.00 | 0.00 | 97 | 914.3 |
| 20260508102815 | 20 | 44 | 1.6 | 4.8 | 0.00 | 0.00 | 0.00 | 97 | 914.3 |
| 20260508102416 | 20 | 39 | 1.6 | 4.8 | 0.00 | 0.00 | 0.00 | 97 | 914.2 |
| 20260508102315 | 20 | 68 | 0.0 | 4.8 | 0.00 | 0.00 | 0.00 | 97 | 914.2 |
| 20260508101817 | 20 | 70 | 0.0 | 6.4 | 0.00 | 0.00 | 0.00 | 96 | 914.1 |
| 20260508101815 | 20 | 72 | 0.0 | 6.4 | 0.00 | 0.00 | 0.00 | 96 | 914.1 |
| 20260508101315 | 20 | 55 | 6.4 | 9.7 | 0.00 | 0.00 | 0.00 | 96 | 914.1 |
| 20260508101216 | 20 | 40 | 4.8 | 8.0 | 0.00 | 0.00 | 0.00 | 96 | 914.1 |
| 20260508100616 | 20 | 41 | 3.2 | 4.8 | 0.00 | 0.00 | 0.00 | 96 | 914.1 |
| 20260508100016 | 20 | 30 | 3.2 | 8.0 | 0.00 | 0.00 | 0.00 | 96 | 914.0 |
| 20260508095416 | 20 | 58 | 6.4 | 8.0 | 0.00 | 0.00 | 0.00 | 96 | 913.9 |
| 20260508094816 | 20 | 55 | 1.6 | 8.0 | 0.00 | 0.00 | 0.00 | 96 | 913.8 |
| 20260508094314 | 20 | 28 | 3.2 | 4.8 | 0.00 | 0.00 | 0.00 | 95 | 913.9 |
| 20260508094216 | 20 | 31 | 1.6 | 4.8 | 0.00 | 0.00 | 0.00 | 95 | 913.9 |
| 20260508093815 | 20 | 44 | 4.8 | 6.4 | 0.00 | 0.00 | 0.00 | 95 | 913.8 |
| 20260508093616 | 21 | 77 | 6.4 | 6.4 | 0.00 | 0.00 | 0.00 | 95 | 913.7 |
| 20260508093315 | 21 | 56 | 0.0 | 6.4 | 0.00 | 0.00 | 0.00 | 95 | 913.6 |
| 20260508093016 | 21 | 45 | 6.4 | 6.4 | 0.00 | 0.00 | 0.00 | 94 | 913.6 |
| 20260508092815 | 21 | 47 | 6.4 | 6.4 | 0.00 | 0.00 | 0.00 | 94 | 913.7 |
| 20260508092417 | 21 | 54 | 4.8 | 6.4 | 0.00 | 0.00 | 0.00 | 93 | 913.7 |
| 20260508092314 | 21 | 47 | 6.4 | 6.4 | 0.00 | 0.00 | 0.00 | 93 | 913.7 |
| 20260508091817 | 21 | 64 | 1.6 | 4.8 | 0.00 | 0.00 | 0.00 | 93 | 913.8 |
| 20260508091815 | 21 | 65 | 1.6 | 4.8 | 0.00 | 0.00 | 0.00 | 93 | 913.8 |
| 20260508091315 | 21 | 23 | 1.6 | 3.2 | 0.00 | 0.00 | 0.00 | 93 | 913.8 |
| 20260508091218 | 21 | 14 | 0.0 | 0.0 | 0.00 | 0.00 | 0.00 | 93 | 913.8 |
| 20260508090814 | 21 | 40 | 3.2 | 6.4 | 0.00 | 0.00 | 0.00 | 93 | 913.8 |
| 20260508090616 | 20 | 318 | 3.2 | 6.4 | 0.00 | 0.00 | 0.00 | 93 | 913.8 |
| 20260508090314 | 20 | 347 | 3.2 | 6.4 | 0.00 | 0.00 | 0.00 | 94 | 913.8 |
| 20260508090015 | 20 | 357 | 3.2 | 6.4 | 0.00 | 0.00 | 0.00 | 94 | 913.7 |
| 20260508085814 | 20 | 26 | 3.2 | 4.8 | 0.00 | 0.00 | 0.00 | 94 | 913.7 |
| 20260508083316 | 20 | 352 | 4.8 | 8.0 | 0.00 | 0.00 | 0.00 | 95 | 913.7 |
| 20260508083016 | 20 | 343 | 3.2 | 6.4 | 0.00 | 0.00 | 0.00 | 95 | 913.7 |
| 20260508082814 | 20 | 6 | 1.6 | 4.8 | 0.00 | 0.00 | 0.00 | 96 | 913.6 |
| 20260508082415 | 20 | 353 | 4.8 | 9.7 | 0.00 | 0.00 | 0.00 | 95 | 913.6 |
| 20260508082314 | 20 | 349 | 4.8 | 9.7 | 0.00 | 0.00 | 0.00 | 95 | 913.7 |
| 20260508081816 | 20 | 11 | 0.0 | 0.0 | 0.00 | 0.00 | 0.00 | 96 | 913.7 |
| 20260508081314 | 20 | 337 | 1.6 | 4.8 | 0.00 | 0.00 | 0.00 | 96 | 913.7 |
| 20260508081215 | 20 | 11 | 6.4 | 9.7 | 0.00 | 0.00 | 0.00 | 96 | 913.7 |
| 20260508080814 | 20 | 21 | 4.8 | 8.0 | 0.00 | 0.00 | 0.00 | 96 | 913.7 |
| 20260508080615 | 20 | 42 | 1.6 | 6.4 | 0.00 | 0.00 | 0.00 | 96 | 913.7 |
| 20260508080314 | 20 | 41 | 3.2 | 6.4 | 0.00 | 0.00 | 0.00 | 96 | 913.7 |
| 20260508080015 | 20 | 354 | 3.2 | 6.4 | 0.00 | 0.00 | 0.00 | 95 | 913.8 |
| 20260508075814 | 20 | 360 | 3.2 | 6.4 | 0.00 | 0.00 | 0.00 | 95 | 913.8 |
| 20260508075415 | 20 | 345 | 0.0 | 6.4 | 0.00 | 0.00 | 0.00 | 95 | 913.9 |
| 20260508075314 | 20 | 353 | 1.6 | 6.4 | 0.00 | 0.00 | 0.00 | 95 | 913.8 |
| 20260508074814 | 20 | 30 | 0.0 | 3.2 | 0.00 | 0.00 | 0.00 | 95 | 913.8 |
| 20260508074315 | 20 | 346 | 4.8 | 8.0 | 0.00 | 0.00 | 0.00 | 95 | 913.9 |
| 20260508074215 | 20 | 360 | 4.8 | 8.0 | 0.00 | 0.00 | 0.00 | 95 | 913.9 |
| 20260508073813 | 20 | 358 | 4.8 | 6.4 | 0.00 | 0.00 | 0.00 | 95 | 913.8 |
| 20260508073315 | 20 | 19 | 3.2 | 6.4 | 0.00 | 0.00 | 0.00 | 95 | 913.9 |
| 20260508073015 | 20 | 17 | 3.2 | 6.4 | 0.00 | 0.00 | 0.00 | 95 | 913.9 |
| 20260508072813 | 20 | 27 | 1.6 | 4.8 | 0.00 | 0.00 | 0.00 | 95 | 913.9 |
| 20260508072415 | 20 | 32 | 3.2 | 6.4 | 0.00 | 0.00 | 0.00 | 95 | 913.9 |
| 20260508072313 | 20 | 31 | 1.6 | 3.2 | 0.00 | 0.00 | 0.00 | 95 | 913.9 |
| 20260508071815 | 20 | 99 | 0.0 | 1.6 | 0.00 | 0.00 | 0.00 | 95 | 913.9 |
| 20260508071813 | 20 | 97 | 0.0 | 1.6 | 0.00 | 0.00 | 0.00 | 95 | 913.9 |
| 20260508071313 | 20 | 13 | 1.6 | 3.2 | 0.00 | 0.00 | 0.00 | 95 | 913.9 |
| 20260508071215 | 20 | 20 | 1.6 | 3.2 | 0.00 | 0.00 | 0.00 | 95 | 913.9 |
| 20260508070813 | 20 | 4 | 0.0 | 3.2 | 0.00 | 0.00 | 0.00 | 95 | 913.9 |
| 20260508070615 | 20 | 29 | 1.6 | 4.8 | 0.00 | 0.00 | 0.00 | 96 | 913.9 |
| 20260508070316 | 20 | 62 | 3.2 | 6.4 | 0.00 | 0.00 | 0.00 | 96 | 914.0 |
| 20260508070015 | 20 | 62 | 3.2 | 4.8 | 0.00 | 0.00 | 0.00 | 96 | 914.0 |
| 20260508065813 | 20 | 64 | 3.2 | 4.8 | 0.00 | 0.00 | 0.00 | 96 | 914.0 |
| 20260508065415 | 20 | 6 | 0.0 | 1.6 | 0.00 | 0.00 | 0.00 | 96 | 914.1 |
| 20260508065313 | 20 | 40 | 1.6 | 3.2 | 0.00 | 0.00 | 0.00 | 96 | 914.1 |
| 20260508064813 | 20 | 53 | 1.6 | 3.2 | 0.00 | 0.00 | 0.00 | 96 | 914.1 |
| 20260508064313 | 20 | 36 | 1.6 | 3.2 | 0.00 | 0.00 | 0.00 | 96 | 914.1 |
| 20260508064215 | 20 | 10 | 1.6 | 3.2 | 0.00 | 0.00 | 0.00 | 96 | 914.1 |
| 20260508063813 | 20 | 44 | 0.0 | 3.2 | 0.00 | 0.00 | 0.00 | 96 | 914.2 |
| 20260508063614 | 20 | 42 | 1.6 | 6.4 | 0.00 | 0.00 | 0.00 | 96 | 914.2 |
| 20260508063316 | 20 | 49 | 3.2 | 6.4 | 0.00 | 0.00 | 0.00 | 96 | 914.3 |
| 20260508063014 | 20 | 65 | 3.2 | 4.8 | 0.00 | 0.00 | 0.00 | 96 | 914.3 |
| 20260508062813 | 20 | 60 | 0.0 | 4.8 | 0.00 | 0.00 | 0.00 | 96 | 914.3 |
| 20260508062415 | 20 | 52 | 3.2 | 4.8 | 0.00 | 0.00 | 0.00 | 96 | 914.3 |
| 20260508062313 | 20 | 54 | 3.2 | 4.8 | 0.00 | 0.00 | 0.00 | 96 | 914.3 |
| 20260508061815 | 20 | 68 | 3.2 | 4.8 | 0.00 | 0.00 | 0.00 | 96 | 914.3 |
| 20260508061813 | 20 | 71 | 3.2 | 4.8 | 0.00 | 0.00 | 0.00 | 96 | 914.3 |
| 20260508061313 | 20 | 47 | 3.2 | 4.8 | 0.00 | 0.00 | 0.00 | 96 | 914.4 |
| 20260508061214 | 20 | 61 | 3.2 | 4.8 | 0.00 | 0.00 | 0.00 | 96 | 914.4 |
| 20260508060813 | 20 | 61 | 1.6 | 4.8 | 0.00 | 0.00 | 0.00 | 96 | 914.4 |
| 20260508060614 | 20 | 19 | 3.2 | 4.8 | 0.00 | 0.00 | 0.00 | 96 | 914.5 |
| 20260508060316 | 20 | 51 | 0.0 | 4.8 | 0.00 | 0.00 | 0.00 | 96 | 914.5 |
| 20260508060014 | 20 | 66 | 3.2 | 4.8 | 0.00 | 0.00 | 0.00 | 96 | 914.4 |
| 20260508055813 | 20 | 53 | 1.6 | 4.8 | 0.00 | 0.00 | 0.00 | 96 | 914.5 |
| 20260508055416 | 20 | 66 | 3.2 | 6.4 | 0.00 | 0.00 | 0.00 | 96 | 914.5 |
| 20260508055313 | 20 | 35 | 3.2 | 6.4 | 0.00 | 0.00 | 0.00 | 96 | 914.5 |
| 20260508054818 | 20 | 65 | 0.0 | 0.0 | 0.00 | 0.00 | 0.00 | 96 | 914.5 |
| 20260508054313 | 20 | 121 | 3.2 | 4.8 | 0.00 | 0.00 | 0.00 | 95 | 914.5 |
| 20260508054214 | 20 | 55 | 3.2 | 4.8 | 0.00 | 0.00 | 0.00 | 96 | 914.5 |